time_stamp(utc),avg(mph),gust(mph),direction(deg),12m_air_temp(f),sonic_u(cm/s),sonic_v(cm/s),sonic_w(cm/s),pressure,2m_air_temp(f),pyranometer(W/m^2)
"2022-03-31 00:04:36+00",13.6,16.6,,43.3,189,-546,-10,1016.73,43.2,0
"2022-03-31 00:09:36+00",12.7,14.7,,,176,-525,-22,1016.73,43.2,0
"2022-03-31 00:14:36+00",12.4,14.4,,,183,-504,-5,1016.7,43.2,0
"2022-03-31 00:19:36+00",10.4,12.4,,,144,-423,-8,1016.69,43.3,0
"2022-03-31 00:24:36+00",12.3,14.3,,43.4,145,-501,-8,1016.7,43.3,0
"2022-03-31 00:29:36+00",11.2,13.2,,43.4,131,-443,-1,1016.66,43.3,0
"2022-03-31 00:34:36+00",10.6,12.6,,43.5,105,-442,-12,1016.7,43.3,0
"2022-03-31 00:39:36+00",12.0,13.0,,,138,-496,-13,1016.62,43.3,0
"2022-03-31 00:44:36+00",9.7,13.7,,,104,-403,2,1016.64,43.4,0
"2022-03-31 00:49:36+00",10.7,12.7,,43.6,129,-427,-4,1016.52,43.4,0
"2022-03-31 00:54:36+00",11.6,14.6,,43.7,189,-474,0,1016.43,43.5,0
"2022-03-31 00:59:36+00",12.8,15.8,,43.7,223,-506,-3,1016.4,43.5,0
"2022-03-31 01:04:36+00",14.0,16.0,,43.8,236,-555,-12,1016.3,43.6,0
"2022-03-31 01:09:36+00",13.4,15.4,,,216,-530,-10,1016.32,43.7,0
"2022-03-31 01:14:36+00",11.8,13.8,,,153,-491,-13,1016.43,43.7,0
"2022-03-31 01:19:36+00",12.1,14.1,,,235,-477,11,1016.16,43.8,0
"2022-03-31 01:24:36+00",13.7,15.7,,44.1,238,-537,-6,1016.09,43.8,0
"2022-03-31 01:29:36+00",12.7,14.7,,44.1,265,-486,7,1015.87,43.9,0
"2022-03-31 01:34:36+00",12.6,14.6,,44.2,251,-479,9,1015.8,43.9,0
"2022-03-31 01:39:36+00",12.2,15.2,,44.3,200,-494,-13,1015.88,44,0
"2022-03-31 01:44:36+00",12.9,14.9,,,211,-509,-5,1015.69,44.1,0
"2022-03-31 01:49:36+00",13.5,15.5,,,282,-518,-2,1015.36,44.2,0
"2022-03-31 01:54:36+00",13.4,15.4,,,246,-525,-6,1015.36,44.3,0
"2022-03-31 01:59:36+00",12.9,14.9,,,234,-529,-23,1015.28,44.3,0
"2022-03-31 02:04:36+00",13.2,16.2,,44.7,266,-513,-7,1015.12,44.4,0
"2022-03-31 02:09:36+00",12.4,13.4,,44.9,307,-441,-7,1015.09,44.5,0
"2022-03-31 02:14:36+00",12.8,14.8,,,305,-479,-2,1015.03,44.7,0
"2022-03-31 02:19:36+00",12.5,15.5,,,267,-485,-4,1014.81,44.7,0
"2022-03-31 02:24:36+00",12.4,14.4,,,242,-482,14,1014.71,44.7,0
"2022-03-31 02:29:36+00",14.0,17.0,,,213,-546,-10,1014.67,44.8,0
"2022-03-31 02:34:36+00",11.8,13.8,,,129,-473,1,1014.83,45,0
"2022-03-31 02:39:36+00",11.8,13.8,,45.4,67,-500,1,1014.87,45.1,0
"2022-03-31 02:44:36+00",11.8,13.8,,,96,-494,-12,1014.71,45.2,0
"2022-03-31 02:49:36+00",11.1,14.1,,,70,-465,-13,1014.63,45.4,0
"2022-03-31 02:54:36+00",11.8,13.8,,,94,-500,-16,1014.41,45.5,0
"2022-03-31 02:59:36+00",11.7,14.7,,45.9,54,-482,-8,1014.47,45.6,0
"2022-03-31 03:04:36+00",11.1,14.1,,,45,-470,2,1014.42,45.8,0
"2022-03-31 03:09:36+00",10.7,13.7,,,6,-453,-13,1014.46,45.9,0
"2022-03-31 03:14:36+00",9.8,13.8,,,-39,-415,-18,1014.4,46,0
"2022-03-31 03:19:36+00",11.4,14.4,,,-42,-482,-23,1014.28,46.1,0
"2022-03-31 03:24:36+00",10.6,13.6,,,-20,-454,-8,1014.15,46.2,0
"2022-03-31 03:29:36+00",12.7,15.7,,46.7,-27,-537,-21,1014.01,46.4,0
"2022-03-31 03:34:36+00",12.2,15.2,,,-61,-531,-26,1013.96,46.5,0
"2022-03-31 03:39:36+00",12.2,16.2,,,-77,-538,-5,1014.12,46.9,0
"2022-03-31 03:44:36+00",12.0,15.0,,,-129,-509,5,1014.11,47,0
"2022-03-31 03:49:36+00",13.1,16.1,,47.5,-158,-537,-9,1014.21,47,0
"2022-03-31 03:54:36+00",11.0,13.0,,,-178,-441,17,1014.36,47.2,0
"2022-03-31 03:59:36+00",11.9,14.9,,,-145,-495,-11,1014.28,47.4,0
"2022-03-31 04:04:36+00",10.9,13.9,,,-112,-445,12,1014.29,47.5,0
"2022-03-31 04:09:36+00",13.0,18.0,,,-139,-556,0,1014.16,47.9,0
"2022-03-31 04:14:36+00",12.0,15.0,,,-123,-502,4,1013.94,48.4,0
"2022-03-31 04:19:36+00",17.4,21.4,,,-170,-749,7,1013.88,48.8,0
"2022-03-31 04:24:36+00",16.7,22.7,,,-152,-736,-7,1013.87,49.1,0
"2022-03-31 04:29:36+00",17.0,21.0,,,-162,-728,-15,1013.92,49.3,0
"2022-03-31 04:34:36+00",16.5,20.5,,,-183,-693,-4,1013.89,49.3,0
"2022-03-31 04:39:36+00",14.4,19.4,,,-148,-638,2,1013.74,49.6,0
"2022-03-31 04:44:36+00",17.6,20.6,,,-248,-746,-3,1013.74,49.8,0
"2022-03-31 04:49:36+00",18.4,21.4,,,-265,-760,0,1013.61,49.9,0
"2022-03-31 04:54:36+00",14.3,17.3,,,-188,-601,-11,1013.45,49.8,0
"2022-03-31 04:59:36+00",13.6,15.6,,50.1,-213,-557,-6,1013.38,49.6,0
"2022-03-31 05:04:36+00",12.5,14.5,,,-166,-534,-8,1013.21,49.4,0
"2022-03-31 05:09:36+00",11.5,14.5,,,-137,-479,-1,1013.14,49.1,0
"2022-03-31 05:14:36+00",11.3,13.3,,,-151,-456,-1,1013.11,49,0
"2022-03-31 05:19:36+00",11.0,14.0,,,-170,-449,-4,1013.12,49.1,0
"2022-03-31 05:24:36+00",12.7,15.7,,,-195,-528,0,1012.95,49.3,0
"2022-03-31 05:29:36+00",10.4,14.4,,,-93,-437,-8,1012.9,49.5,0
"2022-03-31 05:34:36+00",10.7,14.7,,,-85,-450,8,1012.66,49.6,0
"2022-03-31 05:39:36+00",12.4,16.4,,,-94,-521,-9,1012.6,49.6,0
"2022-03-31 05:44:36+00",12.1,14.1,,,-80,-509,-22,1012.46,49.5,0
"2022-03-31 05:49:36+00",10.0,15.0,,,-72,-424,-1,1012.36,49.3,0
"2022-03-31 05:54:36+00",9.7,12.7,,,-72,-415,19,1012.33,49.2,0
"2022-03-31 05:59:36+00",13.1,16.1,,49.3,-157,-567,-15,1012.29,49,0
"2022-03-31 06:04:36+00",9.8,12.8,,,-93,-397,7,1012.28,49,0
"2022-03-31 06:09:36+00",8.6,12.6,,,-99,-374,19,1012.15,49,0
"2022-03-31 06:14:36+00",11.0,13.0,,,-111,-444,-4,1012.18,48.9,0
"2022-03-31 06:19:36+00",10.2,14.2,,,-87,-433,1,1012.13,48.9,0
"2022-03-31 06:24:36+00",9.0,13.0,,,-73,-371,3,1011.99,48.9,0
"2022-03-31 06:29:36+00",11.0,14.0,,,-135,-471,1,1011.92,48.9,0
"2022-03-31 06:34:36+00",10.4,13.4,,,-68,-448,-6,1011.79,48.9,0
"2022-03-31 06:39:36+00",12.7,15.7,,,-82,-534,-15,1011.64,49,0
"2022-03-31 06:44:36+00",11.8,15.8,,,-62,-495,-6,1011.59,49.2,0
"2022-03-31 06:49:36+00",12.9,16.9,,,-113,-550,-3,1011.52,49.4,0
"2022-03-31 06:54:36+00",11.5,15.5,,,-96,-477,11,1011.48,49.5,0
"2022-03-31 06:59:36+00",14.9,19.9,,,-88,-631,-9,1011.43,49.5,0
"2022-03-31 07:04:36+00",13.8,18.8,,,-123,-595,11,1011.31,49.6,0
"2022-03-31 07:09:36+00",15.8,18.8,,,-138,-681,-16,1011.17,49.6,0
"2022-03-31 07:14:36+00",14.9,19.9,,,-139,-640,-4,1011.14,49.6,0
"2022-03-31 07:19:36+00",14.6,18.6,,,-188,-622,-6,1011.02,49.9,0
"2022-03-31 07:24:36+00",16.1,19.1,,,-190,-693,-17,1010.95,49.9,0
"2022-03-31 07:29:36+00",19.1,24.1,,,-304,-787,7,1010.94,50.3,0
"2022-03-31 07:34:36+00",20.5,23.5,,,-402,-832,-3,1010.92,50.5,0
"2022-03-31 07:39:36+00",18.6,23.6,,,-367,-765,1,1010.94,50.8,0
"2022-03-31 07:44:36+00",21.1,24.1,,,-523,-802,15,1010.99,51.1,0
"2022-03-31 07:49:36+00",18.3,22.3,,,-463,-689,1,1010.89,51,0
"2022-03-31 07:54:36+00",19.6,22.6,,,-514,-747,9,1010.82,50.9,0
"2022-03-31 07:59:36+00",18.2,20.2,,,-479,-688,21,1010.82,50.7,0
"2022-03-31 08:04:36+00",18.7,21.7,,,-524,-678,24,1010.82,50.6,0
"2022-03-31 08:09:36+00",18.7,21.7,,,-499,-708,10,1010.68,50.6,0
"2022-03-31 08:14:36+00",16.8,19.8,,,-463,-626,22,1010.7,50.7,0
"2022-03-31 08:19:36+00",15.3,18.3,,,-387,-590,23,1010.61,50.8,0
"2022-03-31 08:24:36+00",16.6,20.6,,51.7,-461,-599,18,1010.53,51,0
"2022-03-31 08:29:36+00",17.9,20.9,,,-497,-639,7,1010.46,51.1,0
"2022-03-31 08:34:36+00",18.0,22.0,,,-496,-664,38,1010.23,51.4,0
"2022-03-31 08:39:36+00",21.5,25.5,,,-584,-817,30,1010.19,51.8,0
"2022-03-31 08:44:36+00",22.9,27.9,,,-579,-862,41,1010.11,52.1,0
"2022-03-31 08:49:36+00",24.1,28.1,,,-600,-946,9,1010.07,52.2,0
"2022-03-31 08:54:36+00",24.4,27.4,,,-627,-956,5,1010.1,52.2,0
"2022-03-31 08:59:36+00",24.7,28.7,,,-587,-986,22,1010.04,52.3,0
"2022-03-31 09:04:36+00",26.1,29.1,,,-566,-1036,0,1010.02,52.2,0
"2022-03-31 09:09:36+00",23.9,26.9,,,-565,-928,7,1009.93,52.1,0
"2022-03-31 09:14:36+00",24.1,28.1,,,-550,-956,22,1009.91,52,0
"2022-03-31 09:19:36+00",24.7,27.7,,,-499,-1003,5,1009.82,52,0
"2022-03-31 09:24:36+00",23.4,28.4,,,-485,-950,21,1009.77,51.8,0
"2022-03-31 09:29:36+00",23.0,28.0,,,-489,-923,-8,1009.7,51.5,0
"2022-03-31 09:34:36+00",24.2,28.2,,,-464,-992,16,1009.54,51.8,0
"2022-03-31 09:39:36+00",24.4,29.4,,,-473,-982,10,1009.49,51.7,0
"2022-03-31 09:44:36+00",24.8,27.8,,,-483,-997,3,1009.52,51.4,0
"2022-03-31 09:49:36+00",21.3,24.3,,,-479,-855,22,1009.59,51.3,0
"2022-03-31 09:54:36+00",21.8,24.8,,,-546,-847,25,1009.61,51.3,0
"2022-03-31 09:59:36+00",20.6,23.6,,,-595,-715,37,1009.84,51.3,0
"2022-03-31 10:04:36+00",20.3,23.3,,,-600,-700,14,1009.84,51.1,0
"2022-03-31 10:09:36+00",19.4,21.4,,,-568,-697,25,1009.82,51.1,0
"2022-03-31 10:14:36+00",24.9,28.9,,,-728,-855,17,1009.92,51.6,0
"2022-03-31 10:19:36+00",23.6,26.6,,,-702,-840,26,1009.93,51.8,0
"2022-03-31 10:24:36+00",21.9,24.9,,,-636,-777,22,1009.96,51.7,0
"2022-03-31 10:29:36+00",17.3,20.3,,,-487,-632,28,1009.91,51.6,0
"2022-03-31 10:34:36+00",20.4,23.4,,,-512,-786,24,1009.91,52.5,0
"2022-03-31 10:39:36+00",21.2,23.2,,,-511,-834,15,1009.77,52.9,0
"2022-03-31 10:44:36+00",21.0,24.0,,,-496,-847,21,1009.74,53,0
"2022-03-31 10:49:36+00",22.4,26.4,,,-515,-901,26,1009.71,53.1,0
"2022-03-31 10:54:36+00",23.0,26.0,,,-495,-916,1,1009.63,52.9,0
"2022-03-31 10:59:36+00",23.5,28.5,,,-412,-959,10,1009.56,52.9,0
"2022-03-31 11:04:36+00",25.3,28.3,,,-458,-1029,11,1009.5,52.9,0
"2022-03-31 11:09:36+00",24.6,28.6,,,-427,-996,0,1009.46,53.1,0
"2022-03-31 11:14:36+00",27.8,31.8,,,-547,-1149,-8,1009.38,53.8,0
"2022-03-31 11:19:36+00",29.4,35.4,,,-528,-1198,21,1009.37,54.9,0
"2022-03-31 11:24:36+00",28.7,33.7,,,-501,-1166,-9,1009.41,54.7,0
"2022-03-31 11:29:36+00",24.8,27.8,,,-384,-1018,-13,1009.41,54.1,0
"2022-03-31 11:34:36+00",26.1,29.1,,,-415,-1068,1,1009.48,53.7,0
"2022-03-31 11:39:36+00",25.4,28.4,,,-410,-1057,2,1009.39,53.3,0
"2022-03-31 11:44:36+00",25.1,30.1,,,-371,-1036,-2,1009.4,53.4,0.1
"2022-03-31 11:49:36+00",21.5,24.5,,,-288,-905,-10,1009.46,53.1,0
"2022-03-31 11:54:36+00",17.6,20.6,,,-200,-746,6,1009.43,52.2,0.4
"2022-03-31 11:59:36+00",20.5,25.5,,51.9,-258,-860,-3,1009.4,51.7,2.6
"2022-03-31 12:04:36+00",19.0,24.0,,,-198,-808,-3,1009.35,51.7,38.5
"2022-03-31 12:09:36+00",19.7,23.7,,,-186,-826,-7,1009.31,52.1,57.4
"2022-03-31 12:14:36+00",19.2,27.2,,,-204,-780,1,1009.4,52.9,61.3
"2022-03-31 12:19:36+00",20.3,24.3,,,-243,-892,-6,1009.3,52.9,17.2
"2022-03-31 12:24:36+00",16.4,20.4,,,-175,-677,1,1009.37,52.6,8.6
"2022-03-31 12:29:36+00",20.4,24.4,,,-243,-863,-20,1009.32,52.4,38.3
"2022-03-31 12:34:36+00",21.4,28.4,,,-278,-905,-5,1009.13,52.7,13.8
"2022-03-31 12:39:36+00",23.6,28.6,,,-323,-1005,-7,1009.15,53.1,27.1
"2022-03-31 12:44:36+00",21.3,25.3,,,-333,-881,6,1009.1,52.9,4.8
"2022-03-31 12:49:36+00",23.8,27.8,,,-277,-1016,-12,1008.93,52.7,20.9
"2022-03-31 12:54:36+00",20.8,24.8,,,-227,-883,7,1009.08,52.2,34.6
"2022-03-31 12:59:36+00",20.6,24.6,,,-227,-863,-8,1009.1,52.2,18.6
"2022-03-31 13:04:36+00",19.8,24.8,,,-194,-851,-15,1008.94,52.1,1.1
"2022-03-31 13:09:36+00",23.3,27.3,,,-313,-982,-5,1009,52.3,1
"2022-03-31 13:14:36+00",22.5,28.5,,,-249,-932,1,1009.01,51.7,4.3
"2022-03-31 13:19:36+00",21.1,28.1,,,-222,-910,-4,1009.07,51.4,6.2
"2022-03-31 13:24:36+00",24.7,30.7,,,-284,-1017,-8,1009.04,51.4,8.6
"2022-03-31 13:29:36+00",19.2,25.2,,,-225,-825,-3,1009.14,51.3,12.8
"2022-03-31 13:34:36+00",23.9,28.9,,,-297,-984,-17,1009.11,51.5,0
"2022-03-31 13:39:36+00",22.8,27.8,,,-293,-950,-9,1009.12,51.5,5
"2022-03-31 13:44:36+00",20.9,24.9,,,-294,-856,-14,1009.17,51.6,25.9
"2022-03-31 13:49:36+00",21.5,24.5,,,-331,-880,-10,1009.13,52.1,45.3
"2022-03-31 13:54:36+00",19.0,21.0,,,-335,-787,4,1009.17,52.2,7.4
"2022-03-31 13:59:36+00",23.3,26.3,,,-449,-943,-4,1009.12,52.3,0.2
"2022-03-31 14:04:36+00",21.1,24.1,,,-421,-855,7,1009.24,52,8.5
"2022-03-31 14:09:36+00",19.8,21.8,,52.2,-409,-795,17,1009.35,52.1,6.4
"2022-03-31 14:14:36+00",19.2,23.2,,,-399,-772,13,1009.33,51.9,1.8
"2022-03-31 14:19:36+00",20.7,22.7,,,-458,-832,10,1009.34,52,1.6
"2022-03-31 14:24:36+00",19.0,21.0,,,-410,-765,27,1009.36,52,2.6
"2022-03-31 14:29:36+00",21.8,24.8,,,-523,-878,8,1009.36,52.4,19.4
"2022-03-31 14:34:36+00",21.9,25.9,,,-569,-830,30,1009.27,53.1,18
"2022-03-31 14:39:36+00",19.3,22.3,,,-491,-754,9,1009.27,53.2,41.6
"2022-03-31 14:44:36+00",20.3,23.3,,,-561,-764,3,1009.35,53.1,26.6
"2022-03-31 14:49:36+00",20.4,22.4,,,-577,-751,10,1009.32,53,59.4
"2022-03-31 14:54:36+00",19.7,21.7,,,-574,-706,26,1009.28,53.1,46
"2022-03-31 14:59:36+00",20.1,24.1,,,-544,-757,0,1009.16,53.1,28.2
"2022-03-31 15:04:36+00",19.1,22.1,,,-502,-732,6,1008.96,53.2,26.1
"2022-03-31 15:09:36+00",22.2,27.2,,,-488,-885,-4,1008.77,53.7,60.6
"2022-03-31 15:14:36+00",25.6,30.6,,,-527,-1046,12,1008.54,54.5,60.3
"2022-03-31 15:19:36+00",26.9,31.9,,,-474,-1093,6,1008.38,55.2,58.3
"2022-03-31 15:24:36+00",23.3,27.3,,,-326,-997,19,1008.31,55.8,74.5
"2022-03-31 15:29:36+00",26.0,32.0,,,-270,-1120,11,1008.07,55.5,122.5
"2022-03-31 15:34:36+00",23.9,30.9,,,-165,-1044,7,1007.83,55.4,133.8
"2022-03-31 15:39:36+00",24.5,31.5,,,-181,-1083,10,1007.62,55.3,133.3
"2022-03-31 15:44:36+00",27.7,34.7,,,-314,-1186,-15,1007.84,55.1,115.8
"2022-03-31 15:49:36+00",26.3,33.3,,,-348,-1066,-3,1007.74,55.6,105.2
"2022-03-31 15:54:36+00",26.0,30.0,,,-465,-1074,-3,1007.66,56.3,111.1
"2022-03-31 15:59:36+00",29.1,36.1,,,-476,-1171,2,1007.59,56.9,91.3
"2022-03-31 16:04:36+00",27.5,32.5,,,-452,-1134,13,1007.58,57,87.7
"2022-03-31 16:09:36+00",31.5,37.5,,,-535,-1318,-4,1007.48,57.1,74.3
"2022-03-31 16:14:36+00",25.2,34.2,,,-448,-1044,37,1007.52,56.9,67.4
"2022-03-31 16:19:36+00",32.2,37.2,,,-485,-1328,6,1007.41,57.1,75.3
"2022-03-31 16:24:36+00",31.2,38.2,,,-399,-1291,-22,1007.18,57.3,98.7
"2022-03-31 16:29:36+00",29.4,34.4,,,-401,-1245,-20,1007.13,57.2,138.3
"2022-03-31 16:34:36+00",29.9,36.9,,,-451,-1230,22,1007.03,57.4,135.2
"2022-03-31 16:39:36+00",30.9,36.9,,,-505,-1273,-11,1006.99,57.4,98.5
"2022-03-31 16:44:36+00",32.8,38.8,,,-526,-1353,11,1006.92,57.5,102.4
"2022-03-31 16:49:36+00",30.1,39.1,,,-412,-1271,-10,1006.83,57,109
"2022-03-31 16:54:36+00",30.3,35.3,,,-410,-1272,-8,1006.92,56.6,104.5
"2022-03-31 16:59:36+00",28.4,34.4,,,-353,-1154,8,1007,56.2,77.9
"2022-03-31 17:04:36+00",21.8,28.8,,,-276,-901,23,1007,55.6,70.8
"2022-03-31 17:09:36+00",23.1,30.1,,,-291,-974,22,1006.81,55.2,77.9
"2022-03-31 17:14:36+00",20.9,26.9,,,-228,-868,-5,1006.79,54.9,139.4
"2022-03-31 17:19:36+00",23.5,30.5,,,-259,-951,-1,1006.67,54.8,82.9
"2022-03-31 17:24:36+00",21.7,28.7,,,-236,-878,6,1006.59,54.7,93.5
"2022-03-31 17:29:36+00",26.4,30.4,,,-360,-1121,-28,1006.61,54.7,98.9
"2022-03-31 17:34:36+00",22.1,25.1,,54.2,-314,-916,-8,1006.63,54.7,91.5
"2022-03-31 17:39:36+00",23.8,28.8,,,-277,-1009,-1,1006.55,54.6,73.7
"2022-03-31 17:44:36+00",24.7,30.7,,,-325,-1037,-8,1006.52,54.4,49.5
"2022-03-31 17:49:36+00",20.3,27.3,,,-245,-835,6,1006.55,54.4,39.9
"2022-03-31 17:54:36+00",20.5,29.5,,,-301,-863,13,1006.53,54.3,40.8
"2022-03-31 17:59:36+00",26.2,31.2,,,-359,-1095,12,1006.43,54.5,74.1
"2022-03-31 18:04:36+00",22.6,27.6,,,-325,-937,-16,1006.32,54.8,91.8
"2022-03-31 18:09:36+00",24.9,32.9,,,-407,-1013,-6,1006.32,55,28.8
"2022-03-31 18:14:36+00",21.7,24.7,,,-341,-886,-4,1006.18,55.4,76.1
"2022-03-31 18:19:36+00",25.7,29.7,,,-407,-1068,-5,1006.12,55.5,73.4
"2022-03-31 18:24:36+00",25.9,30.9,,,-441,-1079,-2,1005.9,55.5,85
"2022-03-31 18:29:36+00",21.5,27.5,,,-342,-889,22,1005.95,55.6,117.2
"2022-03-31 18:34:36+00",26.4,31.4,,,-458,-1063,10,1005.85,55.6,39.1
"2022-03-31 18:39:36+00",25.9,31.9,,,-479,-1072,-18,1005.73,55.3,10.3
"2022-03-31 18:44:36+00",24.4,30.4,,,-328,-1005,-17,1005.51,55.3,11.5
"2022-03-31 18:49:36+00",29.3,32.3,,,-449,-1212,-10,1005.36,55.4,45.8
"2022-03-31 18:54:36+00",27.3,32.3,,55.3,-318,-1152,-20,1005.17,55.4,26.2
"2022-03-31 18:59:36+00",23.8,29.8,,,-265,-980,9,1005.03,55,7.2
"2022-03-31 19:04:36+00",23.3,32.3,,,-203,-1014,-8,1005.1,54.4,17.1
"2022-03-31 19:09:36+00",23.2,31.2,,,-239,-976,-12,1004.97,54,29.8
"2022-03-31 19:14:36+00",23.1,30.1,,,-200,-960,12,1005.05,53.8,26.8
"2022-03-31 19:19:36+00",26.3,33.3,,,-236,-1139,0,1004.77,54,42.3
"2022-03-31 19:24:36+00",21.1,27.1,,,-177,-935,5,1004.64,54,51.9
"2022-03-31 19:29:36+00",29.1,36.1,,,-332,-1237,-12,1004.63,54.2,44.9
"2022-03-31 19:34:36+00",27.0,34.0,,,-359,-1181,-33,1004.48,54.3,31.6
"2022-03-31 19:39:36+00",26.4,29.4,,,-401,-1086,15,1004.55,54.2,31.3
"2022-03-31 19:44:36+00",25.3,31.3,,,-330,-1053,7,1004.5,54.1,11.8
"2022-03-31 19:49:36+00",21.2,25.2,,,-301,-905,7,1004.25,54.2,5.8
"2022-03-31 19:54:36+00",27.1,31.1,,,-389,-1132,-7,1004.25,54.2,0
"2022-03-31 19:59:36+00",23.4,31.4,,,-362,-978,4,1004.35,54.3,22.8
"2022-03-31 20:04:36+00",23.1,28.1,,,-317,-942,9,1004.27,54.3,34.3
"2022-03-31 20:09:36+00",26.8,34.8,,,-345,-1105,-9,1004.03,54.4,53.2
"2022-03-31 20:14:36+00",19.3,26.3,,,-247,-818,22,1003.69,54.5,39.7
"2022-03-31 20:19:36+00",20.4,26.4,,,-190,-833,10,1003.4,54.1,0
"2022-03-31 20:24:36+00",23.2,29.2,,,-355,-952,4,1004.08,53.7,0.1
"2022-03-31 20:29:36+00",24.8,29.8,,,-288,-1008,-4,1003.81,54,0
"2022-03-31 20:34:36+00",21.8,29.8,,,-240,-933,-11,1003.62,54.2,0
"2022-03-31 20:39:36+00",20.3,24.3,,,-237,-843,-2,1003.54,54.1,1.1
"2022-03-31 20:44:36+00",21.2,26.2,,,-237,-896,-14,1003.55,53.8,0.4
"2022-03-31 20:49:36+00",22.6,28.6,,,-307,-933,8,1003.47,53.5,0.2
"2022-03-31 20:54:36+00",20.4,25.4,,,-230,-866,15,1003.1,53.3,1.4
"2022-03-31 20:59:36+00",23.2,26.2,,,-324,-958,1,1003.36,53.2,8.4
"2022-03-31 21:04:36+00",23.2,28.2,,,-275,-979,6,1002.93,53.2,0.2
"2022-03-31 21:09:36+00",18.5,26.5,,,-160,-793,-4,1002.9,53.3,5.9
"2022-03-31 21:14:36+00",21.1,28.1,,,-166,-895,-1,1002.7,53.5,0.7
"2022-03-31 21:19:36+00",26.1,32.1,,,-163,-1082,-9,1002.37,53.7,0
"2022-03-31 21:24:36+00",22.4,28.4,,,-149,-971,1,1002.45,53.7,0
"2022-03-31 21:29:36+00",21.1,29.1,,,-152,-915,2,1002.24,53.7,0
"2022-03-31 21:34:36+00",26.6,32.6,,,-224,-1146,-19,1002.1,53.8,0
"2022-03-31 21:39:36+00",26.9,32.9,,,-353,-1117,-8,1002.31,53.9,0.6
"2022-03-31 21:44:36+00",26.3,30.3,,,-287,-1100,-14,1002.02,53.8,0
"2022-03-31 21:49:36+00",27.0,33.0,,,-386,-1100,18,1001.96,53.8,0
"2022-03-31 21:54:36+00",26.1,29.1,,,-360,-1084,-20,1001.96,53.6,0
"2022-03-31 21:59:36+00",27.4,31.4,,,-408,-1112,-9,1001.96,53.5,0
"2022-03-31 22:04:36+00",21.7,27.7,,,-437,-887,23,1002.16,53.3,0
"2022-03-31 22:09:36+00",23.6,31.6,,,-254,-1002,11,1001.65,53.6,0
"2022-03-31 22:14:36+00",23.0,30.0,,,-80,-957,-6,1001.06,53.9,0
"2022-03-31 22:19:36+00",23.8,30.8,,,-154,-1002,-5,1001.14,54,0
"2022-03-31 22:24:36+00",26.6,36.6,,,-94,-1047,34,1000.94,54.1,0
"2022-03-31 22:29:36+00",26.4,34.4,,,-7,-941,62,1000.79,54.4,0
"2022-03-31 22:34:36+00",23.2,29.2,,,-65,-920,21,1000.67,54.5,0
"2022-03-31 22:39:36+00",23.2,30.2,,,-62,-903,30,1000.59,54.5,0
"2022-03-31 22:44:36+00",22.7,29.7,,,-98,-911,44,1000.3,54.7,0
"2022-03-31 22:49:36+00",28.7,39.7,,,113,-672,369,1000.45,54.9,0
"2022-03-31 22:54:36+00",25.2,34.2,,,-6,-804,174,1000.25,55.1,0
"2022-03-31 22:59:36+00",27.2,34.2,,,59,-767,262,999.94,55.5,0
"2022-03-31 23:04:36+00",32.2,41.2,,,265,-442,590,999.97,55.8,0
"2022-03-31 23:09:36+00",27.4,35.4,,,-16,-797,267,999.95,55.6,0
"2022-03-31 23:14:36+00",28.7,40.7,,,111,-651,359,999.97,55.6,0
"2022-03-31 23:19:36+00",30.2,40.2,,,32,-942,200,999.97,55.7,0
"2022-03-31 23:24:36+00",28.8,37.8,,,-93,-961,150,999.93,55.5,0
"2022-03-31 23:29:36+00",28.3,37.3,,,-164,-1117,42,999.93,55.4,0
"2022-03-31 23:34:36+00",27.2,37.2,,,-186,-1134,0,999.92,55.3,0
"2022-03-31 23:39:36+00",30.9,38.9,,,-301,-1290,8,1000.1,55.6,0
"2022-03-31 23:44:36+00",31.9,41.9,,,-284,-1337,20,1000.09,55.9,0
"2022-03-31 23:49:36+00",26.4,34.4,,,-218,-1104,29,999.9,55.8,0
"2022-03-31 23:54:36+00",30.8,39.8,,,-267,-1340,3,999.73,55.9,0
"2022-03-31 23:59:36+00",27.2,34.2,,,-258,-1158,16,999.75,55.8,0
